| time (UTC) | temp F | wind direction | speed knots | gust knots | rain 1hr in | rain 24hr in | rain mn in | humidity % | barometer mb |
| 20260506212538 | 50 | 198 | 0.0 | 0.9 | 0.00 | 0.00 | 0.20 | 93 | 1010.4 |
| 20260506211358 | 50 | 228 | 0.0 | 0.9 | 0.00 | 0.00 | 0.20 | 94 | 1010.4 |
| 20260506210230 | 50 | 240 | 0.0 | 0.0 | 0.00 | 0.00 | 0.20 | 93 | 1010.5 |
| 20260506205105 | 50 | 192 | 0.0 | 0.0 | 0.00 | 0.00 | 0.20 | 93 | 1010.3 |
| 20260506203935 | 49 | 204 | 0.0 | 0.0 | 0.00 | 0.00 | 0.20 | 93 | 1010.2 |
| 20260506202719 | 48 | 258 | 0.9 | 1.7 | 0.00 | 0.00 | 0.20 | 94 | 1010.0 |
| 20260506201538 | 48 | 246 | 0.0 | 0.0 | 0.00 | 0.00 | 0.20 | 97 | 1009.8 |
| 20260506200411 | 48 | 228 | 0.0 | 0.9 | 0.00 | 0.00 | 0.20 | 95 | 1009.6 |
| 20260506195244 | 49 | 198 | 0.0 | 1.7 | 0.00 | 0.00 | 0.20 | 93 | 1009.6 |
| 20260506194118 | 49 | 192 | 1.7 | 1.7 | 0.00 | 0.00 | 0.20 | 92 | 1009.5 |
| 20260506192902 | 50 | 174 | 0.9 | 1.7 | 0.00 | 0.00 | 0.20 | 92 | 1009.3 |
| 20260506191721 | 50 | 216 | 0.9 | 1.7 | 0.00 | 0.00 | 0.20 | 91 | 1009.3 |
| 20260506190554 | 50 | 198 | 1.7 | 2.6 | 0.00 | 0.00 | 0.20 | 91 | 1009.2 |
| 20260506185427 | 51 | 168 | 1.7 | 2.6 | 0.00 | 0.00 | 0.20 | 91 | 1009.1 |
| 20260506184300 | 51 | 204 | 1.7 | 1.7 | 0.00 | 0.00 | 0.20 | 91 | 1009.0 |
| 20260506183043 | 51 | 192 | 0.0 | 2.6 | 0.00 | 0.00 | 0.20 | 91 | 1008.8 |
| 20260506181902 | 52 | 210 | 1.7 | 1.7 | 0.00 | 0.00 | 0.20 | 90 | 1008.6 |
| 20260506180735 | 52 | 162 | 1.7 | 1.7 | 0.00 | 0.00 | 0.20 | 91 | 1008.6 |
| 20260506175608 | 52 | 168 | 1.7 | 1.7 | 0.00 | 0.00 | 0.20 | 92 | 1008.6 |
| 20260506174442 | 52 | 240 | 0.0 | 1.7 | 0.00 | 0.00 | 0.20 | 92 | 1008.4 |
| 20260506173313 | 53 | 161 | 1.7 | 1.7 | 0.00 | 0.00 | 0.20 | 87 | 1008.3 |
| 20260506172146 | 53 | 210 | 0.9 | 0.9 | 0.00 | 0.00 | 0.20 | 88 | 1008.0 |
| 20260506171031 | 53 | 270 | 0.0 | 0.9 | 0.00 | 0.00 | 0.20 | 89 | 1008.0 |
| 20260506165850 | 53 | 120 | 0.0 | 1.7 | 0.00 | 0.00 | 0.20 | 88 | 1007.9 |
| 20260506164723 | 53 | 192 | 0.0 | 1.7 | 0.00 | 0.00 | 0.20 | 86 | 1007.8 |
| 20260506163554 | 53 | 216 | 0.9 | 2.6 | 0.00 | 0.00 | 0.20 | 86 | 1007.8 |
| 20260506162426 | 53 | 240 | 1.7 | 1.7 | 0.00 | 0.00 | 0.20 | 85 | 1007.7 |
| 20260506161300 | 53 | 204 | 0.0 | 0.9 | 0.00 | 0.00 | 0.20 | 87 | 1007.7 |
| 20260506160133 | 53 | 186 | 0.0 | 2.6 | 0.00 | 0.00 | 0.20 | 87 | 1007.8 |
| 20260506155018 | 53 | 240 | 0.0 | 2.6 | 0.00 | 0.00 | 0.20 | 87 | 1007.9 |
| 20260506153837 | 53 | 258 | 0.9 | 1.7 | 0.00 | 0.00 | 0.20 | 86 | 1007.9 |
| 20260506152709 | 53 | 240 | 0.0 | 1.7 | 0.00 | 0.00 | 0.20 | 86 | 1007.8 |
| 20260506151541 | 53 | 198 | 1.7 | 1.7 | 0.00 | 0.00 | 0.20 | 90 | 1007.8 |
| 20260506150413 | 53 | 204 | 0.0 | 1.7 | 0.00 | 0.00 | 0.20 | 89 | 1007.8 |
| 20260506145158 | 52 | 204 | 0.0 | 1.7 | 0.01 | 0.00 | 0.20 | 90 | 1007.8 |
| 20260506144018 | 52 | 180 | 0.0 | 3.5 | 0.01 | 0.00 | 0.20 | 89 | 1007.8 |
| 20260506142850 | 52 | 198 | 0.0 | 1.7 | 0.01 | 0.00 | 0.20 | 90 | 1007.7 |
| 20260506141721 | 52 | 228 | 0.0 | 2.6 | 0.02 | 0.00 | 0.20 | 89 | 1007.8 |
| 20260506140554 | 52 | 234 | 0.0 | 4.3 | 0.05 | 0.00 | 0.20 | 91 | 1007.8 |
| 20260506135337 | 53 | 234 | 1.7 | 1.7 | 0.06 | 0.00 | 0.19 | 88 | 1007.7 |
| 20260506134155 | 53 | 222 | 1.7 | 1.7 | 0.08 | 0.00 | 0.19 | 90 | 1007.6 |
| 20260506133028 | 52 | 180 | 0.9 | 2.6 | 0.09 | 0.00 | 0.19 | 92 | 1007.7 |
| 20260506131900 | 52 | 252 | 0.0 | 2.6 | 0.11 | 0.00 | 0.18 | 91 | 1007.7 |
| 20260506130732 | 53 | 228 | 1.7 | 3.5 | 0.10 | 0.00 | 0.15 | 89 | 1007.5 |
| 20260506125605 | 53 | 252 | 1.7 | 5.2 | 0.10 | 0.00 | 0.13 | 88 | 1007.4 |
| 20260506124437 | 54 | 240 | 2.6 | 3.5 | 0.08 | 0.00 | 0.11 | 88 | 1007.2 |
| 20260506123322 | 54 | 156 | 2.6 | 4.3 | 0.06 | 0.00 | 0.10 | 90 | 1006.9 |
| 20260506122141 | 54 | 150 | 1.7 | 4.3 | 0.05 | 0.00 | 0.08 | 89 | 1006.7 |
| 20260506121015 | 55 | 228 | 1.7 | 3.5 | 0.02 | 0.00 | 0.05 | 92 | 1006.5 |
| 20260506115847 | 55 | 204 | 0.9 | 2.6 | 0.00 | 0.00 | 0.03 | 90 | 1006.3 |
| 20260506114720 | 56 | 180 | 2.6 | 3.5 | 0.00 | 0.00 | 0.03 | 87 | 1006.0 |
| 20260506113503 | 56 | 222 | 1.7 | 6.1 | 0.00 | 0.00 | 0.03 | 85 | 1005.9 |
| 20260506112323 | 56 | 288 | 0.9 | 3.5 | 0.00 | 0.00 | 0.03 | 82 | 1005.8 |
| 20260506111154 | 57 | 252 | 0.0 | 4.3 | 0.01 | 0.00 | 0.03 | 81 | 1005.8 |
| 20260506110028 | 58 | 234 | 2.6 | 3.5 | 0.02 | 0.00 | 0.03 | 81 | 1006.1 |
| 20260506104900 | 57 | 222 | 2.6 | 2.6 | 0.02 | 0.00 | 0.03 | 84 | 1005.9 |
| 20260506103644 | 56 | 240 | 2.6 | 2.6 | 0.02 | 0.00 | 0.03 | 84 | 1006.0 |
| 20260506102502 | 57 | 276 | 0.0 | 0.9 | 0.02 | 0.00 | 0.03 | 86 | 1006.0 |
| 20260506101337 | 56 | 228 | 0.0 | 2.6 | 0.02 | 0.00 | 0.03 | 88 | 1006.0 |
| 20260506100209 | 55 | 240 | 0.9 | 1.7 | 0.00 | 0.00 | 0.01 | 86 | 1006.0 |
| 20260506095042 | 55 | 222 | 1.7 | 1.7 | 0.00 | 0.00 | 0.01 | 85 | 1005.8 |
| 20260506093914 | 56 | 108 | 0.0 | 1.7 | 0.00 | 0.00 | 0.01 | 82 | 1005.7 |
| 20260506092748 | 56 | 186 | 1.7 | 1.7 | 0.00 | 0.00 | 0.01 | 82 | 1005.7 |
| 20260506091633 | 56 | 186 | 0.0 | 0.9 | 0.00 | 0.00 | 0.01 | 85 | 1005.6 |
| 20260506090451 | 56 | 204 | 0.0 | 2.6 | 0.00 | 0.00 | 0.01 | 83 | 1005.5 |
| 20260506085325 | 56 | 222 | 0.0 | 0.0 | 0.00 | 0.00 | 0.01 | 83 | 1005.5 |
| 20260506084157 | 56 | 228 | 0.0 | 0.9 | 0.00 | 0.00 | 0.01 | 82 | 1005.5 |
| 20260506083030 | 55 | 210 | 0.0 | 0.0 | 0.00 | 0.00 | 0.01 | 81 | 1005.5 |
| 20260506081815 | 56 | 204 | 0.0 | 0.0 | 0.00 | 0.00 | 0.01 | 84 | 1005.5 |
| 20260506080635 | 56 | 210 | 0.0 | 0.0 | 0.00 | 0.00 | 0.01 | 82 | 1005.5 |
| 20260506073213 | 54 | 24 | 0.0 | 0.0 | 0.00 | 0.00 | 0.01 | 88 | 1005.6 |
| 20260506072046 | 53 | 240 | 0.0 | 0.0 | 0.00 | 0.00 | 0.01 | 88 | 1005.7 |
| 20260506070919 | 52 | 36 | 0.0 | 0.9 | 0.00 | 0.00 | 0.01 | 89 | 1005.7 |
| 20260506062330 | 49 | 336 | 0.0 | 0.0 | 0.00 | 0.00 | 0.01 | 96 | 1005.9 |
| 20260506061203 | 48 | 210 | 0.0 | 0.0 | 0.00 | 0.00 | 0.01 | 98 | 1005.8 |
| 20260506050318 | 46 | 54 | 0.0 | 0.0 | 0.00 | 0.00 | 0.01 | 99 | 1006.1 |
| 20260506043933 | 46 | 246 | 0.0 | 0.0 | 0.00 | 0.00 | 0.01 | 99 | 1006.0 |
| 20260506042752 | 45 | 198 | 0.0 | 0.9 | 0.00 | 0.00 | 0.01 | 99 | 1005.9 |
| 20260506041624 | 45 | 318 | 0.0 | 0.0 | 0.01 | 0.00 | 0.01 | 99 | 1006.1 |
| 20260506040456 | 45 | 252 | 0.0 | 0.0 | 0.01 | 0.00 | 0.01 | 99 | 1006.2 |
| 20260506035329 | 45 | 240 | 0.0 | 0.9 | 0.01 | 0.00 | 0.01 | 99 | 1006.3 |
| 20260506034113 | 46 | 210 | 0.0 | 0.0 | 0.01 | 0.00 | 0.01 | 99 | 1006.3 |
| 20260506032930 | 45 | 192 | 0.0 | 0.0 | 0.01 | 0.00 | 0.01 | 99 | 1006.6 |
| 20260506031803 | 45 | 204 | 0.0 | 0.0 | 0.00 | 0.00 | 0.00 | 99 | 1006.6 |
| 20260506030637 | 46 | 204 | 0.0 | 0.0 | 0.00 | 0.00 | 0.00 | 99 | 1006.6 |
| 20260506025509 | 46 | 306 | 0.0 | 0.0 | 0.00 | 0.00 | 0.00 | 99 | 1006.6 |
| 20260506024253 | 46 | 240 | 0.0 | 0.0 | 0.00 | 0.00 | 0.00 | 99 | 1006.7 |
| 20260506023059 | 46 | 54 | 0.0 | 0.9 | 0.00 | 0.00 | 0.00 | 99 | 1006.7 |
| 20260506021931 | 47 | 222 | 0.0 | 0.0 | 0.00 | 0.00 | 0.00 | 99 | 1006.6 |
| 20260506020803 | 47 | 252 | 0.0 | 0.0 | 0.00 | 0.00 | 0.00 | 99 | 1006.8 |
| 20260506015635 | 48 | 234 | 0.0 | 0.0 | 0.00 | 0.00 | 0.00 | 99 | 1006.9 |
| 20260506014508 | 48 | 276 | 0.0 | 0.0 | 0.00 | 0.00 | 0.00 | 99 | 1007.1 |
| 20260506013342 | 48 | 216 | 0.0 | 0.0 | 0.00 | 0.00 | 0.00 | 99 | 1007.2 |
| 20260506012227 | 48 | 156 | 0.0 | 0.0 | 0.00 | 0.00 | 0.00 | 99 | 1007.2 |
| 20260506011046 | 48 | 198 | 0.0 | 0.0 | 0.00 | 0.00 | 0.00 | 99 | 1007.3 |
| 20260506005918 | 47 | 216 | 0.0 | 0.0 | 0.00 | 0.00 | 0.00 | 99 | 1007.4 |
| 20260506004750 | 47 | 210 | 0.0 | 0.0 | 0.00 | 0.00 | 0.00 | 99 | 1007.6 |
| 20260506003622 | 47 | 216 | 0.0 | 0.0 | 0.00 | 0.00 | 0.00 | 99 | 1007.7 |
| 20260506002454 | 47 | 222 | 0.0 | 0.0 | 0.00 | 0.00 | 0.00 | 99 | 1007.6 |
| 20260506001326 | 47 | 174 | 0.0 | 0.0 | 0.00 | 0.00 | 0.00 | 99 | 1007.8 |
| 20260506000212 | 47 | 192 | 0.0 | 0.0 | 0.00 | 0.00 | 0.00 | 99 | 1007.6 |
| 20260505235030 | 48 | 192 | 0.0 | 0.0 | 0.00 | 0.00 | 0.00 | 99 | 1007.7 |
| 20260505233903 | 48 | 252 | 0.0 | 0.0 | 0.00 | 0.00 | 0.00 | 98 | 1007.9 |
| 20260505232735 | 48 | 198 | 0.0 | 0.0 | 0.00 | 0.00 | 0.00 | 99 | 1008.1 |
| 20260505231603 | 48 | 234 | 0.0 | 0.9 | 0.00 | 0.00 | 0.00 | 99 | 1008.1 |
| 20260505223939 | 48 | 354 | 0.0 | 0.9 | 0.00 | 0.00 | 0.03 | 99 | 1008.3 |
| 20260505222812 | 48 | 210 | 0.9 | 0.9 | 0.00 | 0.00 | 0.03 | 98 | 1008.3 |
| 20260505221556 | 48 | 240 | 0.0 | 0.0 | 0.00 | 0.00 | 0.03 | 98 | 1008.4 |
| 20260505220415 | 49 | 210 | 0.0 | 0.0 | 0.00 | 0.00 | 0.03 | 98 | 1008.3 |
| 20260505215246 | 49 | 234 | 0.0 | 0.0 | 0.00 | 0.00 | 0.03 | 98 | 1008.4 |
| 20260505214119 | 49 | 168 | 0.0 | 0.9 | 0.00 | 0.00 | 0.03 | 97 | 1008.5 |